Location: downtown San Diego
(32.7310°N, 117.1990°W)
Time: 17:57:13
(UTC-07:00)

Cosmos 1939 Rocket - Pass Details

Date: 19 May 2017
Orbit: 534 x 586 km, 97.5° (Epoch: 26 May)

Event Time Altitude Azimuth Distance (km) Brightness Sun altitude
Exits shadow 20:49:00 18° 146° (SE) 1,357 4.2 -12.8°
Maximum altitude 20:51:39 51° 76° (ENE) 684 3.0 -13.2°
Drops below altitude 10° 20:55:24 10° 360° (N) 1,794 5.9 -13.9°
Sets 20:57:33 0° 355° (N) 2,687 7.0 -14.2°
